XNO23M LIRP-EGCC

Flight info

Callsign XNO23M
Flight time 2h 4m
Altitude 34000
Route SPEZI DCT OTMUV DCT AOSTA DCT ORSUD DCT MOLUS DCT IBODI DCT GOTED DCT TRO DCT CLM DCT KOPOR DCT VESAN DCT RATUK DCT SOVAT L613 SANDY UN57 WELIN T420 ELVOS
Aircraft A321/M-SDE3FGHIRWY/LB1

Departure

Time 2026-04-24 16:59
Airport Pisa International Airport (LIRP)

Arrival

Time 2026-04-24 19:04
Airport Manchester Airport (EGCC)
Time Latitude Longitude Altitude Speed Heading
2026-04-24 16:36 43.69752 10.40030 14 ft 0 kts
2026-04-24 16:52 43.69729 10.40025 14 ft 4 kts 16°
2026-04-24 16:53 43.69712 10.40017 14 ft 4 kts 30°
2026-04-24 16:53 43.69693 10.39995 16 ft 4 kts 65°
2026-04-24 16:53 43.69689 10.39971 17 ft 1 kts 98°
2026-04-24 16:53 43.69690 10.39967 16 ft 0 kts 98°
2026-04-24 16:56 43.69689 10.39972 14 ft 2 kts 98°
2026-04-24 16:56 43.69686 10.39996 14 ft 4 kts 98°
2026-04-24 16:57 43.69672 10.40035 14 ft 8 kts 136°
2026-04-24 16:57 43.69595 10.40064 15 ft 13 kts 172°
2026-04-24 16:57 43.69501 10.40081 16 ft 14 kts 172°
2026-04-24 16:57 43.69428 10.40096 17 ft 9 kts 171°
2026-04-24 16:58 43.69364 10.40140 18 ft 13 kts 136°
2026-04-24 16:58 43.69296 10.40263 12 ft 16 kts 121°
2026-04-24 16:58 43.69200 10.40274 11 ft 16 kts 216°
2026-04-24 16:58 43.69070 10.40136 11 ft 47 kts 217°
2026-04-24 16:59 43.68605 10.39658 12 ft 116 kts 216°
2026-04-24 16:59 43.67809 10.38842 41 ft 164 kts 217°
2026-04-24 16:59 43.65963 10.36967 1411 ft 163 kts 221°
2026-04-24 17:00 43.65052 10.36025 2000 ft 168 kts 220°
2026-04-24 17:00 43.63118 10.33667 2520 ft 203 kts 246°
2026-04-24 17:00 43.62992 10.31750 3000 ft 207 kts 288°
2026-04-24 17:01 43.64601 10.28445 4543 ft 209 kts 306°
2026-04-24 17:01 43.65484 10.26832 5233 ft 212 kts 307°
2026-04-24 17:02 43.67309 10.23488 6504 ft 224 kts 308°
2026-04-24 17:02 43.68361 10.21890 7109 ft 227 kts 323°
2026-04-24 17:02 43.69764 10.20716 7492 ft 243 kts 333°
2026-04-24 17:02 43.71276 10.19607 8111 ft 249 kts 332°
2026-04-24 17:03 43.74385 10.17314 9473 ft 257 kts 333°
2026-04-24 17:03 43.75972 10.16141 10152 ft 260 kts 333°
2026-04-24 17:03 43.77546 10.14879 10770 ft 264 kts 323°
2026-04-24 17:04 43.78796 10.12991 11362 ft 271 kts 302°
2026-04-24 17:04 43.79550 10.07606 11842 ft 315 kts 269°
2026-04-24 17:04 43.79443 10.04469 11974 ft 337 kts 269°
2026-04-24 17:05 43.79323 10.01130 12096 ft 358 kts 269°
2026-04-24 17:05 43.79198 9.97597 12209 ft 377 kts 268°
2026-04-24 17:05 43.78938 9.90136 13093 ft 394 kts 268°
2026-04-24 17:06 43.78809 9.86331 13710 ft 398 kts 268°
2026-04-24 17:06 43.78524 9.78659 14814 ft 406 kts 268°
2026-04-24 17:06 43.78348 9.74746 15380 ft 409 kts 267°
2026-04-24 17:07 43.78222 9.72080 15749 ft 412 kts 267°
2026-04-24 17:07 43.78056 9.66816 16476 ft 416 kts 274°
2026-04-24 17:07 43.79448 9.59056 17527 ft 420 kts 297°
2026-04-24 17:08 43.82968 9.52640 18509 ft 422 kts 319°
2026-04-24 17:08 43.85144 9.49882 18932 ft 426 kts 319°
2026-04-24 17:08 43.87329 9.47091 19364 ft 429 kts 319°
2026-04-24 17:09 43.91723 9.41433 20238 ft 434 kts 319°
2026-04-24 17:09 43.96173 9.35684 21081 ft 439 kts 319°
2026-04-24 17:10 43.98418 9.32787 21511 ft 442 kts 319°
2026-04-24 17:10 44.05243 9.23986 22705 ft 450 kts 319°
2026-04-24 17:11 44.12174 9.14991 23833 ft 459 kts 319°
2026-04-24 17:12 44.24398 9.00404 25399 ft 468 kts 326°
2026-04-24 18:54 53.36262 -2.33351 2026 ft 213 kts 351°
2026-04-24 18:55 53.38940 -2.31745 2126 ft 210 kts 38°
2026-04-24 18:55 53.40039 -2.30142 2041 ft 209 kts 45°
2026-04-24 18:55 53.41097 -2.28466 1937 ft 209 kts 45°
2026-04-24 18:56 53.42155 -2.26800 1836 ft 209 kts 45°
2026-04-24 18:56 53.43205 -2.25145 1727 ft 202 kts 45°
2026-04-24 18:56 53.44220 -2.23541 1843 ft 202 kts 45°
2026-04-24 18:56 53.45226 -2.21951 2596 ft 201 kts 45°
2026-04-24 18:57 53.46248 -2.20320 2923 ft 202 kts 45°
2026-04-24 18:57 53.47250 -2.18686 2992 ft 200 kts 45°
2026-04-24 18:57 53.48245 -2.17062 2995 ft 199 kts 45°
2026-04-24 18:57 53.49238 -2.15442 3004 ft 199 kts 45°
2026-04-24 18:58 53.50226 -2.13822 3004 ft 199 kts 45°
2026-04-24 18:58 53.51215 -2.12195 2999 ft 199 kts 47°
2026-04-24 18:58 53.51875 -2.10212 3003 ft 196 kts 79°
2026-04-24 18:58 53.51821 -2.07953 2995 ft 195 kts 109°
2026-04-24 18:59 53.51140 -2.06089 3001 ft 182 kts 133°
2026-04-24 18:59 53.50160 -2.04806 3000 ft 177 kts 152°
2026-04-24 18:59 53.49020 -2.04147 3028 ft 169 kts 170°
2026-04-24 18:59 53.47855 -2.04128 3010 ft 164 kts 188°
2026-04-24 19:00 53.47133 -2.04439 3032 ft 162 kts 199°
2026-04-24 19:00 53.45875 -2.05737 3006 ft 161 kts 223°
2026-04-24 19:00 53.45146 -2.07165 2985 ft 162 kts 230°
2026-04-24 19:00 53.44443 -2.08636 2837 ft 161 kts 230°
2026-04-24 19:01 53.43742 -2.10098 2668 ft 161 kts 229°
2026-04-24 19:01 53.43046 -2.11550 2462 ft 159 kts 229°
2026-04-24 19:01 53.42353 -2.12995 2253 ft 158 kts 229°
2026-04-24 19:01 53.41667 -2.14425 2051 ft 157 kts 229°
2026-04-24 19:02 53.41203 -2.15390 1902 ft 157 kts 228°
2026-04-24 19:02 53.40301 -2.17266 1618 ft 155 kts 229°
2026-04-24 19:02 53.39626 -2.18669 1407 ft 155 kts 229°
2026-04-24 19:02 53.38953 -2.20069 1195 ft 154 kts 228°
2026-04-24 19:03 53.38283 -2.21459 976 ft 153 kts 228°
2026-04-24 19:03 53.37607 -2.22863 772 ft 153 kts 229°
2026-04-24 19:03 53.36947 -2.24232 571 ft 152 kts 230°
2026-04-24 19:03 53.36285 -2.25607 350 ft 151 kts 230°
2026-04-24 19:04 53.35649 -2.26925 261 ft 120 kts 231°
2026-04-24 19:04 53.35312 -2.27622 241 ft 40 kts 232°
2026-04-24 19:04 53.35273 -2.27784 237 ft 12 kts 256°
2026-04-24 19:04 53.35246 -2.27981 234 ft 18 kts 259°
2026-04-24 19:05 53.35232 -2.28162 231 ft 14 kts 276°
2026-04-24 19:05 53.35299 -2.28182 233 ft 12 kts 42°
2026-04-24 19:05 53.35353 -2.28089 239 ft 12 kts 45°
2026-04-24 19:05 53.35419 -2.27978 237 ft 13 kts 44°
2026-04-24 19:06 53.35500 -2.27918 240 ft 13 kts
2026-04-24 19:06 53.35602 -2.27900 239 ft 15 kts
2026-04-24 19:06 53.35696 -2.27886 244 ft 12 kts
2026-04-24 19:06 53.35772 -2.27874 249 ft 10 kts
2026-04-24 19:07 53.35833 -2.27864 252 ft 8 kts
2026-04-24 19:07 53.35891 -2.27853 255 ft 9 kts
2026-04-24 19:07 53.35946 -2.27861 255 ft 15 kts 342°
2026-04-24 19:07 53.36076 -2.28026 255 ft 19 kts 319°
2026-04-24 19:08 53.36176 -2.28185 255 ft 21 kts 315°
2026-04-24 19:08 53.36265 -2.28339 255 ft 12 kts 313°
2026-04-24 19:08 53.36318 -2.28432 255 ft 12 kts 316°
2026-04-24 19:08 53.36374 -2.28465 255 ft 7 kts 21°
2026-04-24 19:09 53.36417 -2.28407 255 ft 9 kts 42°
2026-04-24 19:09 53.36469 -2.28359 255 ft 9 kts 24°
2026-04-24 19:09 53.36511 -2.28316 255 ft 4 kts
2026-04-24 19:09 53.36531 -2.28332 255 ft 2 kts 329°
2026-04-24 19:10 53.36539 -2.28344 255 ft 2 kts 317°
2026-04-24 19:10 53.36550 -2.28361 255 ft 1 kts 316°
2026-04-24 19:10 53.36551 -2.28364 255 ft 0 kts 315°